RH
8 9 10 11 12 11 10 10 9 8 8 7 7 8 8 8 8 8 8 8 8 8 8 7 6 6 6 6 6 7 6 8 13 14 15 13 11 11 9 8 7 7 7 6 7 10 10 11 11 12 14 15 17 17 17 18 18 23 28 33 33 27 23 18 14 14 12 16 20 22 18 13 27 37 33 32 31 30 30 28 26 24 23 28 37 40 41 47
10 12 13 13 12 10 9 9 8 8 7 7 7 7 7 7 7 7 7 7 7 7 7 6 6 7 7 6 7 6 6 11 14 13 12 10 10 11 9 9 8 7 7 6 9 13 12 10 10 10 11 11 13 14 15 15 16 21 26 29 28 22 16 12 11 11 11 12 10 15 19 15 23 33 29 28 30 31 32 31 27 26 26 31 39 43 48 50
13 14 15 14 12 10 9 9 8 8 8 8 7 7 7 7 7 7 7 7 6 7 7 6 7 7 7 7 7 6 8 13 13 12 12 10 10 9 8 8 7 7 7 6 8 9 10 10 11 10 10 9 10 12 14 13 13 16 21 25 22 16 12 9 11 11 11 11 7 12 19 17 22 28 26 24 27 30 31 32 28 27 29 33 42 47 51 51
14 15 15 14 13 11 9 9 8 8 8 7 7 7 7 6 6 7 6 6 6 6 6 6 6 6 7 7 8 7 9 12 13 13 12 10 9 8 7 8 7 8 7 7 6 6 7 9 10 9 9 9 8 10 12 13 13 13 16 19 16 11 10 10 12 12 12 11 8 13 17 18 21 24 22 20 26 30 29 32 31 27 29 34 42 47 49 51
14 14 14 14 13 12 10 8 8 8 7 7 7 7 7 7 6 6 6 6 6 6 6 6 5 6 7 8 9 7 11 17 14 13 13 10 9 8 8 8 8 8 8 8 7 9 10 10 10 9 9 9 9 9 10 10 11 12 12 13 12 10 9 10 12 12 11 11 10 11 15 21 24 23 23 23 29 34 31 31 32 30 30 33 39 43 45 47
14 13 13 13 11 11 9 8 7 7 6 6 6 6 6 7 7 7 6 6 6 6 6 5 5 6 8 10 10 7 14 22 15 11 12 9 9 9 9 9 8 8 8 8 9 13 14 11 10 9 9 10 10 10 9 9 10 13 12 9 9 10 9 10 12 12 11 12 11 12 16 20 22 23 25 27 30 33 32 31 30 30 30 31 35 39 42 44
12 12 11 10 9 8 8 7 6 6 6 7 7 7 7 6 7 7 7 7 6 6 6 5 5 5 8 12 11 12 18 19 13 11 11 10 11 11 10 10 9 8 8 10 13 14 13 10 10 8 9 11 10 9 8 8 9 14 15 10 8 10 11 11 12 12 11 12 12 15 17 14 18 25 26 28 31 31 33 34 33 32 31 32 35 39 40 40
10 10 8 7 7 7 6 6 7 7 8 8 8 8 8 7 7 7 7 7 7 7 6 6 5 5 10 11 14 20 20 14 11 11 11 12 12 11 10 10 9 9 9 13 14 13 12 11 10 8 9 11 9 10 13 11 11 15 16 11 8 11 11 12 12 12 12 12 14 15 14 15 19 24 26 28 31 30 32 35 35 35 35 36 37 39 39 39
8 8 8 8 8 7 7 8 8 9 8 8 8 8 8 8 7 7 7 7 7 7 6 6 6 7 11 12 17 21 16 11 12 11 11 11 11 11 11 10 10 9 12 15 14 13 12 10 10 10 11 11 8 11 16 18 17 16 14 11 10 12 11 12 13 13 13 12 14 13 13 19 20 20 28 31 30 31 32 35 36 37 37 39 40 41 42 44
10 10 10 10 10 9 9 9 9 8 8 7 7 8 9 9 9 8 7 7 7 8 8 8 11 12 12 15 21 20 13 12 12 11 11 11 10 10 10 11 10 10 13 15 14 13 12 12 13 12 11 11 12 12 14 19 21 17 15 14 14 14 12 12 13 12 13 13 13 13 14 16 15 21 30 31 30 32 33 36 38 39 41 42 44 46 48 51
12 12 12 12 10 10 10 9 8 8 8 7 6 8 10 10 9 9 9 8 8 9 9 10 15 14 12 16 20 16 12 13 13 11 11 11 11 10 10 10 10 11 12 13 14 14 13 14 14 13 14 16 18 16 15 20 21 17 15 16 16 15 13 13 13 12 13 13 13 12 13 15 18 26 31 30 31 34 36 40 42 44 47 49 51 52 53 54
12 12 13 12 10 10 9 8 8 8 7 7 7 7 9 8 7 9 11 10 10 11 11 14 16 13 13 19 16 12 13 13 13 13 12 13 12 11 11 11 11 11 11 12 14 15 14 12 12 14 16 19 20 21 23 22 19 16 16 21 20 14 14 14 12 13 13 13 13 12 16 23 27 29 29 30 33 36 39 43 46 49 51 52 53 52 52 51
12 12 12 12 11 10 9 9 8 8 8 7 7 7 8 6 6 9 11 9 8 11 14 15 14 11 18 21 14 12 15 13 13 14 14 15 15 14 13 12 11 12 12 12 12 13 13 11 11 14 18 21 21 24 27 19 16 18 18 20 22 19 19 15 12 13 13 13 12 13 26 33 30 28 28 30 33 38 42 45 47 49 50 50 50 48 48 46
12 13 13 12 12 11 10 10 9 9 9 8 8 7 7 6 6 9 10 8 7 12 15 14 12 17 24 20 13 14 15 15 16 15 16 15 15 16 17 16 14 13 13 13 12 12 12 12 12 13 18 21 20 24 25 19 16 19 22 25 28 30 26 16 14 15 14 15 11 16 32 36 29 28 29 29 33 39 43 45 47 48 48 48 47 46 45 44
12 12 13 12 12 12 10 10 10 10 10 10 9 7 8 6 6 9 10 8 9 12 14 15 14 21 26 17 13 18 16 18 19 16 16 14 13 16 17 17 15 14 13 13 13 12 12 13 14 17 22 22 21 25 27 23 20 22 30 36 34 32 31 21 15 16 17 16 13 22 36 35 29 29 28 29 34 41 43 45 46 46 47 46 45 45 45 44
11 12 14 12 12 12 11 11 10 10 10 10 8 7 8 7 9 11 10 10 13 13 15 19 18 20 24 16 14 19 18 20 19 17 17 14 14 15 15 16 16 15 15 15 13 13 14 14 16 20 22 22 22 26 29 27 25 25 31 37 31 28 32 27 20 18 17 18 15 23 37 37 31 29 28 31 36 41 43 44 45 45 46 45 45 45 45 46
10 10 13 13 12 11 11 11 10 10 10 8 8 7 8 10 12 11 11 13 14 14 16 19 21 21 21 16 15 18 18 20 18 17 18 15 14 14 15 17 18 18 17 17 15 15 16 16 19 20 19 20 21 24 31 36 36 33 33 34 30 27 29 30 30 23 18 25 23 22 34 37 31 30 29 33 37 41 43 43 44 45 45 45 45 45 45 46
10 10 12 13 12 11 11 10 10 10 9 8 8 7 10 15 16 11 14 19 19 20 21 18 21 26 24 18 17 17 16 17 18 18 17 14 13 14 15 15 18 18 16 17 16 15 16 16 19 22 23 23 23 26 35 41 42 42 40 37 36 33 27 29 37 31 24 33 32 28 36 37 32 31 31 34 38 41 43 43 44 44 45 46 46 47 48 49
10 11 12 13 12 11 11 10 10 9 8 9 6 9 17 20 20 17 14 18 23 29 29 22 21 25 24 19 16 16 15 16 18 19 16 13 14 16 16 16 18 18 16 19 18 15 18 19 24 32 36 35 31 33 38 38 36 39 39 38 43 41 32 35 42 37 32 35 34 34 39 38 36 35 34 37 41 43 44 44 45 45 46 47 48 49 51 53
10 11 11 12 12 11 11 10 10 9 8 9 6 12 21 22 27 27 16 14 20 27 28 22 20 20 19 18 15 15 16 17 19 19 15 13 16 18 18 19 19 18 20 27 25 22 22 27 39 45 42 37 32 32 34 33 32 36 40 41 45 42 36 38 43 39 36 36 37 38 39 39 39 38 37 39 42 43 44 44 44 46 48 49 51 53 55 57
11 12 12 12 11 11 11 10 10 9 9 8 7 13 15 15 25 28 24 22 19 21 22 19 20 21 19 19 16 17 19 17 17 19 13 12 17 18 19 21 21 21 23 27 27 27 28 36 46 42 34 32 32 33 34 35 37 39 43 45 43 39 38 41 42 39 36 41 43 39 41 45 41 39 40 40 43 43 43 45 46 48 50 52 53 56 57 58
12 13 12 12 12 11 10 10 10 9 8 7 7 9 7 8 16 20 28 32 22 20 23 21 21 20 20 21 17 19 23 18 18 18 13 13 18 21 23 21 21 24 24 24 27 31 37 42 39 31 31 34 32 32 36 38 40 42 43 44 41 37 40 44 43 37 32 38 43 42 46 48 43 42 44 44 45 46 46 46 48 50 51 53 55 56 57 56
12 12 12 12 10 9 9 8 8 8 8 7 6 7 6 8 10 15 27 31 27 27 26 23 21 17 19 21 18 21 23 19 20 19 14 16 19 25 28 24 25 28 28 31 31 34 41 38 29 30 37 37 32 32 37 38 38 42 43 40 39 38 39 42 43 39 34 34 39 44 51 52 47 48 49 49 50 49 49 49 48 50 51 52 54 54 54 53
10 9 10 10 8 9 8 8 9 9 8 7 7 7 7 8 9 16 25 28 32 33 26 23 21 18 20 21 20 23 23 20 22 20 16 18 20 24 29 31 35 32 33 40 37 37 42 32 27 38 40 36 35 36 38 37 35 41 47 42 37 39 38 37 37 36 35 40 44 46 54 58 54 57 59 55 53 52 51 49 49 50 51 52 53 52 52 52
9 9 10 8 9 9 7 13 13 8 8 8 8 8 8 9 10 17 28 32 32 31 29 29 25 19 19 21 21 25 25 22 24 22 18 19 21 25 30 32 33 33 39 45 39 37 39 31 31 40 38 33 38 41 39 39 35 36 46 44 35 34 36 36 36 36 39 46 49 45 52 60 55 57 63 60 56 56 52 50 50 51 52 52 51 51 52 52
9 9 9 9 10 7 11 21 14 7 12 10 8 10 8 11 13 18 31 37 35 33 32 28 25 22 21 22 21 23 27 25 24 22 20 22 22 28 34 28 27 37 44 43 38 36 35 32 35 39 39 39 41 41 38 39 38 35 40 43 39 38 42 42 40 43 43 40 45 46 46 54 57 57 61 60 59 59 55 53 53 52 52 51 51 53 54 53
9 8 9 8 8 7 11 17 10 7 12 10 10 10 8 13 16 21 34 42 39 35 30 24 23 22 23 26 22 22 28 26 23 21 21 24 22 27 35 30 30 36 37 42 43 39 41 42 42 44 44 43 40 37 36 40 43 41 42 43 41 42 45 45 44 48 43 33 42 51 41 42 57 60 56 56 60 62 59 57 54 52 52 52 54 55 54 55
8 7 8 7 7 9 8 9 8 8 11 11 10 10 13 17 20 30 42 43 38 30 27 27 23 20 24 28 23 23 28 27 26 24 23 25 21 23 34 34 36 36 33 45 46 40 48 49 49 56 50 41 37 34 34 41 45 44 47 46 42 43 45 44 48 47 42 39 44 51 44 43 56 59 54 56 62 66 64 60 55 51 50 51 53 54 54 57
7 7 7 7 8 9 8 8 9 10 11 11 11 14 18 17 24 41 45 38 35 31 29 28 24 22 25 26 23 24 28 27 28 28 25 25 21 22 33 34 34 38 36 41 41 40 47 45 47 54 45 38 38 34 34 42 47 45 48 52 49 52 51 48 52 46 41 48 49 44 42 44 55 58 53 56 61 65 65 60 55 51 49 51 52 54 57 59
6 7 6 8 8 7 9 9 9 11 11 12 15 17 18 23 35 42 32 28 36 36 29 27 28 29 29 31 28 24 28 29 27 29 26 25 22 21 29 29 28 39 43 40 43 47 47 45 48 46 36 37 40 36 37 41 44 45 49 53 51 54 53 48 46 40 45 55 45 36 33 35 52 60 55 57 59 60 63 62 57 52 50 52 54 56 60 61
6 6 7 8 8 8 10 9 10 10 11 16 17 16 25 38 42 31 20 25 37 36 30 30 34 35 36 40 36 29 34 31 25 31 33 29 29 26 29 32 33 40 40 34 42 54 54 50 49 42 34 39 42 37 40 44 45 50 52 47 44 46 45 43 40 38 55 60 39 32 31 31 53 68 62 60 57 56 60 62 61 56 51 54 56 58 60 62
6 7 8 9 7 9 10 8 9 10 14 17 14 22 40 41 32 28 26 31 40 39 37 40 40 39 42 43 36 35 41 36 26 34 43 40 39 38 37 41 45 46 39 30 36 47 50 46 45 45 38 39 41 34 39 49 47 45 43 40 46 48 43 47 47 44 55 52 33 31 33 36 58 69 60 57 56 53 52 54 57 55 53 56 58 59 60 61
7 8 9 9 7 9 10 7 7 11 14 13 14 31 45 33 26 33 30 30 40 40 39 45 45 43 45 40 35 37 42 40 32 33 39 39 40 43 42 42 46 46 40 36 36 38 43 42 43 46 38 33 34 31 36 43 38 37 35 38 50 54 56 61 52 46 51 44 31 31 34 48 68 67 55 54 55 53 49 49 53 54 54 57 58 60 62 62
8 10 10 9 7 9 9 6 9 10 10 17 28 39 40 29 29 35 33 32 38 39 40 45 49 47 43 36 37 38 36 37 37 35 35 33 34 41 41 41 45 43 40 41 40 41 46 47 45 43 35 31 34 36 42 46 44 42 35 35 45 50 61 69 57 56 62 50 36 34 42 63 76 68 55 50 52 54 55 54 54 55 56 59 60 61 62 61
9 11 11 9 8 9 8 7 9 8 11 27 38 38 36 32 29 33 42 44 41 43 45 45 49 46 36 34 40 41 34 35 38 38 37 36 38 41 41 44 45 42 45 48 45 43 43 43 44 41 30 28 35 37 41 49 49 40 32 38 47 44 46 56 55 51 56 56 49 48 58 66 67 60 50 48 52 55 56 56 56 58 59 59 61 59 58 57
10 12 11 10 9 9 8 9 12 15 24 35 37 37 38 40 39 40 49 52 48 53 53 46 46 39 30 31 37 38 37 38 40 38 36 41 47 46 45 48 46 42 46 51 50 48 45 42 41 41 34 28 33 37 40 45 41 35 38 43 43 37 38 52 58 45 45 59 55 52 64 65 60 58 48 47 53 53 54 55 55 57 58 57 56 54 53 53
11 14 14 11 9 9 9 12 18 20 23 31 39 40 38 42 49 53 56 54 52 57 53 42 40 37 33 32 32 34 38 40 40 36 31 40 50 51 49 47 42 39 41 48 51 47 49 49 37 34 40 36 32 37 39 38 37 39 44 40 37 40 40 45 57 56 56 61 47 43 59 67 71 71 55 47 52 54 53 52 50 52 53 51 50 50 50 51
12 20 18 10 11 11 9 13 20 20 18 28 44 46 42 47 53 58 62 60 57 58 49 38 37 37 35 35 34 36 40 40 38 33 30 37 46 51 53 49 42 39 38 46 51 44 48 57 41 26 37 42 37 41 41 35 36 39 38 33 40 57 58 49 53 65 72 67 49 43 53 63 72 71 58 50 50 51 49 47 47 48 46 45 45 46 48 49
15 25 19 10 13 13 13 17 21 22 24 36 48 48 48 55 57 57 60 62 62 56 44 39 39 36 35 39 40 38 40 43 40 36 34 38 47 53 52 49 47 46 44 47 49 44 45 56 50 31 32 38 36 38 41 39 37 35 35 35 38 49 57 53 50 58 68 68 61 56 58 64 62 51 46 45 42 45 47 45 45 42 41 42 42 45 47 48
19 27 18 10 13 15 15 15 15 26 38 44 46 48 52 59 60 54 48 56 64 53 41 43 43 40 39 41 42 39 39 42 39 35 35 37 48 57 54 54 58 57 55 53 49 46 45 50 53 41 31 36 38 36 37 39 41 42 45 50 49 46 49 52 50 52 60 65 67 66 65 67 53 36 38 41 37 40 42 41 41 38 39 42 42 46 47 45
23 30 20 10 15 17 17 18 20 30 43 47 49 55 60 62 62 54 44 51 62 53 46 47 45 45 44 40 43 42 39 42 38 34 37 38 45 57 62 68 73 69 63 56 49 50 49 47 51 49 39 39 41 36 33 36 38 40 44 48 51 55 59 62 60 57 58 59 64 70 72 68 50 34 36 38 35 38 36 35 39 38 40 43 43 45 43 41
23 28 20 11 16 16 17 29 36 35 40 51 58 61 61 56 53 53 50 51 55 52 49 48 45 46 45 41 44 45 44 45 39 35 39 44 52 61 67 72 74 71 66 55 47 49 50 49 55 54 43 41 41 34 34 41 40 38 40 40 46 54 60 66 70 71 69 62 59 66 72 68 51 34 34 37 33 36 37 35 38 39 41 43 41 41 41 41
23 25 16 11 15 14 20 38 45 44 49 57 57 54 55 53 47 48 51 50 51 48 44 44 44 45 46 43 43 47 50 48 43 40 40 47 60 66 65 68 68 62 60 60 56 53 52 54 58 52 39 38 40 34 32 40 42 40 41 44 52 58 60 63 69 73 77 70 60 62 66 64 53 36 33 37 35 37 39 38 40 41 41 41 40 40 42 42
20 21 15 14 14 16 32 46 46 48 53 53 51 50 52 51 47 50 54 51 49 49 43 40 41 44 47 45 44 48 50 45 43 44 40 43 60 68 59 57 62 57 57 66 66 60 59 55 53 57 52 45 45 45 43 44 42 36 41 52 58 60 66 71 69 71 74 62 49 57 65 59 51 42 36 37 38 38 40 40 42 42 41 41 40 41 42 41
21 19 14 14 11 16 37 45 39 45 52 50 49 49 50 49 45 47 54 50 45 47 47 41 40 45 47 45 47 48 43 39 40 42 40 42 58 71 59 49 57 59 55 57 55 56 63 56 49 60 68 64 63 62 56 52 45 36 43 60 66 65 72 74 72 76 77 62 48 55 62 52 44 45 44 42 41 40 40 40 40 40 40 40 40 41 41 40
24 27 25 21 14 18 33 34 30 38 45 44 46 45 46 51 48 44 51 54 44 43 47 42 39 45 45 44 49 45 40 43 45 43 44 46 52 61 58 53 57 57 51 49 49 55 61 54 48 54 60 61 60 54 47 47 47 41 46 60 69 73 73 71 76 79 75 73 64 49 46 47 40 36 40 43 45 43 40 38 38 39 40 40 41 42 41 40
24 37 40 35 30 29 33 34 37 42 40 37 43 45 42 45 48 46 51 52 41 39 45 42 40 45 46 49 52 48 44 46 46 46 48 47 48 50 53 59 58 52 50 49 50 56 59 57 60 58 51 50 49 44 43 45 42 39 44 50 57 71 75 73 79 73 63 73 69 40 37 51 43 31 35 43 45 42 40 39 39 40 40 39 40 40 40 40
27 36 36 36 44 45 41 40 43 43 39 36 41 46 44 43 48 49 48 46 41 42 46 44 45 48 48 51 53 52 51 48 49 57 57 53 56 56 56 58 52 46 49 47 45 52 57 61 68 65 53 48 46 42 41 44 40 35 41 44 46 61 74 77 78 68 57 67 64 43 43 52 44 36 40 43 43 42 41 41 40 40 38 38 39 41 41 41
23 29 29 30 38 40 36 38 41 42 41 38 41 49 48 47 51 50 48 50 48 44 44 47 51 50 49 50 51 53 55 54 58 66 64 62 65 61 58 59 51 44 48 48 47 51 57 63 66 66 63 54 46 42 40 42 42 36 39 47 46 50 57 62 66 60 54 59 56 47 51 51 43 42 43 42 42 41 40 41 39 39 38 37 40 41 42 43
21 24 23 24 30 29 27 32 39 41 36 32 40 49 48 49 53 51 50 53 50 45 46 51 55 54 49 46 50 57 61 59 62 65 64 67 67 59 56 58 56 55 53 53 55 55 58 64 60 59 64 54 41 42 40 36 38 38 40 47 48 44 43 49 57 57 58 63 56 51 58 56 44 41 40 40 40 38 38 40 38 38 38 38 40 42 43 45
17 17 16 22 31 31 27 27 32 37 38 39 45 48 48 50 53 55 54 50 48 51 55 56 60 58 49 45 53 62 61 59 62 63 61 64 63 58 56 55 57 65 63 62 71 67 59 63 59 55 63 52 33 34 32 25 35 49 50 47 43 41 42 46 51 53 56 61 61 63 66 56 40 37 38 37 36 36 37 37 38 39 41 42 43 43 44 47
13 17 16 21 30 32 28 28 31 34 38 45 50 49 48 47 48 55 56 48 46 51 49 50 58 56 50 56 63 60 54 54 59 60 59 60 58 52 52 53 55 63 65 66 76 73 66 72 65 53 60 54 33 28 26 24 42 61 58 48 41 38 40 42 44 43 43 49 59 63 56 40 30 33 40 40 37 37 39 40 41 42 44 46 46 44 46 48
Wind_Speed
6 5 5 4 4 4 3 3 3 3 3 4 4 4 4 4 4 4 3 3 3 4 5 6 6 6 7 8 7 6 6 4 5 3 2 4 6 7 8 7 7 6 5 3 1 3 5 5 7 7 8 9 10 12 9 7 8 5 2 4 4 5 5 4 4 3 4 3 4 5 4 5 4 5 4 5 5 8 11 13 10 8 10 13 16 17 19 21
6 5 5 4 4 4 4 4 4 4 4 4 4 4 4 4 4 4 3 4 4 5 6 6 5 6 6 7 7 6 4 2 3 2 5 5 7 7 8 8 7 6 5 3 2 3 6 8 7 7 10 10 11 11 8 8 9 7 3 3 6 5 6 5 5 8 7 6 5 4 5 5 3 4 4 3 6 9 8 9 11 12 14 13 15 17 19 21
5 4 4 4 4 4 4 4 5 5 5 5 6 5 5 5 5 4 4 4 4 5 5 5 5 5 6 7 7 6 2 2 3 6 6 6 8 8 8 7 7 6 5 4 4 5 6 9 7 6 10 11 11 10 8 8 8 9 6 4 6 5 6 6 9 9 8 7 8 5 6 4 3 4 2 2 5 10 7 6 9 13 15 13 15 17 17 18
4 4 4 5 5 5 4 4 5 5 6 6 6 6 6 5 5 5 4 4 4 4 4 5 5 5 6 7 7 5 1 2 4 8 8 8 8 8 7 7 6 6 5 5 5 5 5 8 7 7 10 10 12 12 9 9 8 8 8 6 6 6 5 5 9 7 7 7 7 4 3 2 3 6 4 2 3 8 10 10 10 10 14 15 16 16 16 16
4 4 4 5 5 5 5 5 5 5 6 6 7 6 6 6 5 5 5 4 4 5 5 5 6 5 6 7 7 5 1 1 3 8 9 9 9 8 7 6 6 5 5 5 4 4 5 7 8 9 11 8 11 11 9 13 11 7 7 9 11 11 7 4 8 4 4 5 3 2 1 2 6 10 13 11 6 4 6 7 9 10 13 16 17 16 16 16
4 4 4 5 5 5 5 5 5 5 6 7 7 7 6 6 5 5 4 5 4 5 6 6 6 5 5 7 7 4 2 1 2 6 8 9 9 8 8 7 6 5 5 4 3 4 6 9 9 10 10 7 9 8 10 16 14 7 6 11 15 13 6 3 6 2 2 1 2 1 2 4 8 13 17 19 12 5 6 7 9 12 13 16 17 17 16 16
5 5 5 5 5 5 4 4 4 5 6 6 7 7 7 6 6 5 5 5 4 5 5 5 5 5 6 7 7 6 3 1 3 7 9 10 10 9 9 8 7 5 4 3 4 6 8 9 10 11 9 6 9 9 12 13 9 4 4 10 12 7 4 1 1 1 0 2 1 2 2 0 6 11 14 18 14 9 11 12 14 15 16 18 19 19 19 19
6 6 6 6 6 5 5 5 5 6 6 7 7 7 7 6 6 5 5 5 5 5 4 4 5 4 7 7 7 7 3 0 5 9 10 11 11 9 9 9 8 5 4 5 6 8 8 9 11 11 8 5 9 8 5 6 6 5 7 11 10 3 4 2 1 2 3 4 2 2 2 8 14 15 14 14 12 12 14 16 17 18 20 21 22 22 21 21
7 6 6 6 6 6 5 5 6 6 7 8 8 8 7 7 6 5 6 5 5 5 4 4 3 4 7 6 6 5 1 4 7 9 10 12 11 10 9 8 8 6 4 5 6 7 7 8 8 9 8 7 11 8 2 2 3 4 7 11 8 5 5 4 3 4 5 5 5 4 5 14 17 15 13 12 11 14 17 19 20 21 22 22 22 21 21 21
7 6 6 5 5 5 5 6 6 7 8 9 10 10 8 8 7 6 5 5 4 4 4 3 3 4 5 5 6 3 2 6 8 11 12 11 11 10 10 8 8 6 4 4 5 6 7 8 9 10 10 8 10 9 6 4 2 5 7 10 9 9 6 6 5 6 7 5 7 5 5 12 9 6 7 9 12 15 19 21 22 24 24 23 23 22 21 21
7 6 5 5 5 5 5 6 8 9 9 10 12 11 9 9 8 7 6 5 4 4 4 3 3 5 3 2 5 2 2 7 11 15 12 10 11 10 10 9 8 6 5 3 3 6 7 8 8 7 6 5 8 7 4 3 5 8 7 8 9 12 9 8 7 7 8 4 8 6 7 10 8 7 6 10 13 16 21 21 21 24 23 22 22 22 21 22
7 6 5 5 6 6 6 7 9 10 10 11 11 10 9 10 10 8 6 5 5 4 3 2 3 4 1 1 3 2 5 9 13 17 15 12 12 10 9 9 8 7 7 4 3 6 9 8 6 5 5 6 7 4 1 3 7 8 5 5 7 10 10 11 9 9 8 5 9 7 6 6 8 8 10 12 14 17 21 21 21 21 21 21 21 22 21 21
7 7 6 6 7 6 7 8 9 10 11 12 11 10 9 10 12 9 6 7 7 4 2 2 2 1 2 2 3 5 9 12 16 18 16 13 12 11 9 9 8 7 8 7 7 9 9 7 5 6 9 7 5 5 6 7 5 5 5 5 5 6 5 8 8 9 6 6 11 8 4 3 7 10 11 13 15 18 19 19 20 20 21 21 21 23 22 21
7 7 7 7 7 7 7 8 9 10 11 12 12 11 9 11 13 9 7 9 9 4 1 3 2 4 4 2 3 8 12 15 18 17 15 13 12 10 8 9 10 9 9 8 9 9 7 6 5 6 8 7 6 7 7 6 4 3 5 4 3 4 2 3 7 8 5 5 9 6 2 3 7 9 9 11 14 18 18 18 19 19 21 21 22 23 23 22
7 7 7 8 8 8 8 8 9 10 11 12 12 12 10 11 13 10 9 11 8 2 2 4 2 3 3 2 5 10 15 17 16 16 16 15 14 11 7 8 11 10 9 7 7 8 6 4 4 5 4 4 5 5 4 4 4 3 4 3 2 4 1 3 4 5 3 3 8 5 3 4 6 8 8 10 14 18 18 18 18 19 20 20 21 22 22 22
8 7 7 8 8 8 8 9 9 10 11 12 12 12 10 11 12 9 11 11 5 6 7 6 2 1 2 3 6 9 15 17 14 16 19 19 20 16 10 7 6 6 8 7 5 5 4 4 5 7 5 3 3 3 3 4 4 4 4 3 4 4 3 3 1 1 3 4 7 4 3 4 5 7 9 11 15 18 19 18 18 19 19 19 20 20 21 21
9 8 7 7 8 8 8 9 9 10 11 11 12 11 9 10 10 9 12 9 5 8 10 8 4 3 4 7 9 11 16 14 11 16 19 20 20 15 10 6 4 5 7 7 4 2 3 4 4 6 5 4 3 3 3 3 3 1 0 2 5 4 2 1 1 1 2 3 3 3 5 6 7 7 10 13 15 17 17 17 17 17 18 18 18 19 19 20
8 8 7 7 8 8 9 9 10 10 11 11 12 10 8 9 8 11 13 7 5 4 7 10 6 3 4 9 12 15 15 10 10 18 21 20 17 12 8 5 3 5 6 5 3 4 5 4 3 3 2 3 2 2 2 2 3 4 4 3 5 6 7 4 1 1 0 1 1 6 9 8 8 7 10 12 14 16 16 16 17 17 18 18 18 18 18 19
8 8 8 8 8 9 10 10 10 11 11 11 12 9 6 7 5 9 14 11 9 4 3 10 9 1 3 9 16 16 10 9 11 16 21 19 15 12 8 5 4 5 7 4 2 3 2 2 3 2 3 2 3 4 3 5 5 5 6 5 4 5 6 2 3 1 1 1 2 7 9 8 8 7 9 12 13 16 16 16 16 16 16 16 17 17 17 18
8 8 9 9 9 10 11 11 11 11 11 11 12 9 4 5 2 4 12 16 16 9 5 9 10 7 6 10 18 15 7 9 8 13 23 18 14 13 7 5 5 5 4 2 0 1 1 2 2 3 4 5 6 5 5 6 6 6 6 5 6 6 4 3 4 2 3 2 4 9 10 8 8 6 8 11 12 13 14 14 14 15 15 16 16 17 17 17
8 9 10 10 11 11 11 11 12 11 11 11 10 6 3 4 1 2 8 13 14 11 9 11 11 10 10 11 18 13 7 10 5 14 25 17 12 10 6 5 5 3 1 3 2 1 1 1 3 4 5 6 5 5 5 6 6 6 5 4 6 5 1 3 3 1 1 2 5 10 10 8 7 6 7 8 8 9 11 12 13 14 15 16 17 17 17 17
9 10 11 11 12 12 13 13 13 11 11 10 7 5 3 4 2 3 5 7 9 10 9 10 11 12 11 11 17 11 7 10 6 15 27 19 12 7 7 9 4 2 3 3 2 1 1 2 3 5 5 5 5 3 4 5 6 5 4 4 4 3 1 2 2 1 1 2 4 8 9 7 6 6 6 7 7 7 10 12 13 15 16 16 16 17 17 17
10 11 11 13 13 13 13 13 12 10 10 9 7 6 4 4 3 4 6 5 5 8 8 7 9 15 15 10 15 10 6 10 7 17 27 22 13 7 8 8 4 4 4 5 5 3 1 2 3 5 4 5 5 4 4 5 5 4 4 4 2 3 2 1 0 1 2 1 4 8 7 5 5 5 5 7 9 9 10 12 13 14 14 15 16 16 16 16
10 11 11 13 13 12 13 10 9 10 10 8 7 8 5 4 3 5 6 2 3 4 5 6 7 15 18 12 15 11 5 8 9 16 24 22 15 7 4 5 4 4 4 5 5 1 2 2 4 6 4 4 5 3 5 4 5 2 1 3 2 4 2 2 3 2 3 2 5 8 5 2 5 5 4 5 7 9 10 11 12 12 14 15 15 15 14 14
11 11 11 13 12 12 12 9 9 11 11 8 8 9 5 4 2 6 5 2 3 2 3 5 5 12 18 14 16 11 0 5 11 16 22 22 16 7 3 4 3 4 5 6 5 1 2 2 4 6 4 5 4 2 6 4 5 3 2 4 4 5 5 4 6 4 2 3 5 7 2 1 4 5 5 4 4 6 8 10 11 12 14 14 14 14 13 13
12 12 12 12 12 12 9 6 9 11 10 8 9 9 5 4 0 7 4 2 1 2 4 6 5 10 15 14 18 11 2 5 11 14 20 20 16 8 4 4 2 3 4 4 2 1 2 3 4 5 4 5 2 2 5 4 4 3 1 2 3 4 5 6 6 3 3 4 4 8 3 1 3 4 5 5 4 5 6 8 10 12 13 13 13 13 13 12
12 12 12 12 12 11 8 5 9 10 9 9 10 8 5 4 2 7 3 1 1 2 4 6 5 9 12 13 18 9 2 7 9 11 19 19 17 9 3 5 2 2 3 2 2 0 3 6 6 7 5 4 2 2 4 4 2 3 2 3 4 5 7 6 6 4 4 4 2 7 4 1 2 3 5 6 6 5 5 6 8 11 12 12 12 12 12 12
12 12 12 12 11 10 9 8 10 10 9 8 8 7 5 2 4 5 1 1 2 3 3 5 5 10 13 9 14 9 1 9 7 8 18 18 19 11 1 6 4 4 4 2 2 1 2 5 5 6 5 3 3 4 4 3 1 2 1 4 6 6 7 6 4 4 5 5 3 5 5 1 1 3 5 5 5 6 6 6 7 11 12 12 13 12 12 11
12 12 12 12 10 10 11 9 9 9 9 8 7 6 3 2 4 2 0 1 2 2 2 6 5 11 16 7 11 12 6 8 6 9 14 14 21 14 2 4 7 6 4 1 1 2 2 4 3 3 3 3 3 6 4 1 3 4 5 7 7 6 6 4 4 4 4 5 3 3 4 2 1 2 3 4 4 4 6 5 6 11 12 12 13 12 11 10
12 12 11 11 11 12 12 9 9 9 9 7 7 5 1 3 2 1 1 0 1 3 4 7 5 9 15 7 7 13 9 6 9 12 10 10 20 21 5 5 11 6 2 0 2 2 2 2 3 2 2 3 5 8 6 5 5 7 7 6 7 5 3 3 4 3 3 3 1 1 1 0 2 2 1 1 1 0 5 6 6 10 12 11 12 11 11 10
11 11 11 12 13 13 12 10 10 9 8 7 6 4 1 1 0 0 1 0 1 5 4 4 5 7 10 4 3 11 7 5 10 10 7 7 14 21 12 6 11 6 1 2 1 2 1 1 1 2 1 3 5 6 4 5 3 4 4 5 5 3 1 1 3 3 2 2 1 1 2 1 1 2 3 3 2 4 3 6 7 9 12 12 11 11 10 9
11 10 10 13 14 12 11 10 10 9 8 7 4 2 0 0 3 2 2 2 1 4 3 1 4 6 6 3 3 7 4 3 8 5 3 3 6 11 11 6 7 5 3 5 3 1 0 1 1 1 1 4 4 4 2 1 1 3 3 4 5 3 1 1 1 2 2 1 2 1 3 2 2 2 3 4 4 5 3 5 10 12 12 13 11 10 9 8
10 9 11 14 13 11 11 10 9 8 7 6 1 1 0 1 3 1 2 4 1 1 2 2 4 6 6 4 4 5 1 1 6 5 2 2 5 6 10 9 9 5 3 5 5 5 2 1 2 1 1 6 5 3 3 2 3 5 4 4 3 3 3 3 2 3 2 1 2 2 2 1 3 2 3 4 3 5 7 7 13 14 12 12 11 10 9 7
9 9 11 14 12 11 11 9 9 8 7 5 1 1 4 4 2 0 1 3 2 2 2 2 5 6 3 1 2 4 2 1 3 6 5 4 4 3 6 9 10 6 3 4 2 3 2 1 3 2 2 6 4 3 1 4 5 4 4 4 3 3 2 2 3 3 4 4 3 0 2 1 2 2 3 4 4 6 11 12 13 12 11 11 10 9 7 6
7 9 12 13 12 11 10 9 8 7 6 5 2 3 5 4 1 2 2 3 2 3 5 4 5 4 1 2 1 2 3 1 3 4 4 4 4 3 3 5 8 7 4 3 2 2 4 2 1 1 2 3 3 1 2 3 3 3 3 3 3 2 1 3 4 5 4 4 4 0 2 3 2 3 4 5 6 7 9 11 12 11 10 10 9 8 7 6
6 9 13 14 12 11 9 9 7 7 6 4 4 5 4 2 2 2 2 3 2 3 7 5 3 2 3 1 0 4 2 1 3 3 2 4 4 4 3 2 5 7 4 3 2 2 3 3 3 0 1 2 2 1 3 3 2 3 3 3 4 4 2 1 4 5 4 3 2 2 3 1 1 3 3 4 5 6 7 8 10 10 10 9 9 8 6 5
5 9 14 14 13 10 8 10 10 11 12 8 6 4 2 2 2 2 3 4 3 2 4 3 2 3 5 3 3 7 5 1 4 4 1 2 2 4 3 2 5 7 5 2 2 1 2 6 6 2 1 1 2 0 3 4 2 2 2 3 5 2 3 1 3 3 4 3 2 2 3 2 2 1 2 4 4 5 5 7 9 9 9 9 9 8 6 5
6 10 14 14 13 11 7 8 9 11 15 11 6 4 2 2 3 3 4 4 2 2 2 3 2 1 3 3 3 6 6 4 5 5 3 1 1 4 3 2 6 10 8 3 1 2 2 4 4 2 1 2 2 1 2 4 2 1 2 4 3 1 1 3 2 2 3 3 3 3 2 2 1 1 3 4 5 6 6 5 7 8 10 10 8 7 6 4
5 7 11 12 12 12 9 7 8 10 11 7 4 3 2 2 3 4 4 4 2 2 2 2 1 1 2 4 4 4 5 5 5 4 3 2 2 4 5 3 5 11 12 5 2 3 3 2 2 3 3 1 3 1 3 2 3 1 2 4 3 0 2 3 2 1 2 3 2 4 3 2 1 1 3 3 3 5 6 5 6 9 11 9 6 5 4 5
4 4 7 10 9 11 12 15 18 15 8 5 4 2 2 2 3 4 6 4 1 2 2 2 2 2 3 4 3 3 3 4 5 3 3 3 2 3 6 5 4 9 12 6 2 3 3 2 3 5 7 3 2 2 3 3 3 3 3 4 4 2 3 3 2 1 1 3 2 3 4 1 1 2 3 4 3 3 4 4 5 8 8 6 4 4 5 8
5 2 6 10 7 6 11 17 18 11 4 4 5 2 2 2 2 4 7 6 2 2 2 1 2 2 2 4 3 3 3 4 4 3 2 3 3 2 4 5 4 6 9 4 1 3 3 3 3 5 7 3 2 2 2 3 1 3 3 3 3 3 3 4 3 1 1 2 1 2 4 1 2 1 2 4 3 3 3 3 4 6 6 5 5 6 8 12
7 2 6 10 8 8 13 14 10 7 4 4 4 4 3 2 1 2 4 4 2 1 1 0 1 2 2 3 3 3 3 3 3 3 2 3 4 2 4 7 5 3 4 3 2 2 2 2 3 5 4 2 2 2 3 3 2 2 3 4 3 3 3 1 3 2 3 3 1 1 2 2 1 1 2 3 3 4 3 3 3 4 5 6 7 9 13 15
10 7 7 7 6 9 14 9 5 6 5 2 3 5 4 3 2 1 2 4 2 1 1 0 1 1 1 2 2 3 3 2 2 3 3 3 3 2 4 7 6 4 3 2 3 4 2 1 3 4 2 2 2 2 2 2 3 2 3 4 3 3 2 2 3 2 2 3 2 1 2 2 2 2 3 3 4 4 3 3 3 4 6 8 10 12 14 15
14 15 16 10 3 7 10 4 2 4 2 2 4 4 3 5 4 2 2 4 3 2 2 1 2 2 2 0 1 3 3 2 3 3 2 3 2 1 4 6 6 6 4 1 3 6 3 1 2 4 3 2 1 2 3 2 2 2 1 4 3 3 1 2 1 1 1 2 3 3 3 1 2 4 4 5 4 4 5 5 5 6 8 9 11 13 15 15
9 12 19 19 14 14 11 6 5 5 3 4 4 2 2 3 4 3 2 3 3 2 2 1 1 2 3 2 3 2 1 1 1 1 1 3 2 2 3 5 6 6 5 1 2 4 2 2 3 3 3 4 3 3 3 3 3 3 1 3 3 3 2 1 1 0 2 2 5 2 3 1 2 5 4 5 4 5 5 5 6 7 8 10 13 16 16 17
3 3 8 15 19 21 17 12 9 6 3 3 3 2 2 1 2 2 1 1 3 3 1 2 2 2 2 4 3 1 1 1 2 2 2 3 2 1 2 3 3 4 4 3 2 2 2 2 2 3 1 4 5 6 6 5 5 5 3 2 2 4 3 1 1 1 2 4 4 1 1 4 3 2 3 5 5 4 4 4 6 8 11 14 16 17 17 17
4 2 2 4 10 14 14 13 11 5 2 1 1 2 3 2 1 1 1 1 2 3 1 2 2 2 3 5 3 2 5 3 2 4 2 2 3 1 1 2 1 4 3 3 4 2 1 2 2 2 4 6 7 9 8 5 5 6 6 5 2 4 3 1 2 3 4 4 4 2 5 7 7 6 3 3 4 3 3 6 9 11 14 17 18 18 17 17
5 4 4 4 3 4 5 7 9 8 7 5 2 0 3 3 2 1 1 1 1 3 2 1 3 5 3 4 3 2 6 5 2 2 1 1 3 3 1 3 1 4 3 2 4 3 0 2 0 0 7 10 9 8 7 5 4 5 5 6 3 3 4 2 4 5 4 3 5 6 8 9 9 6 2 3 1 3 6 10 12 13 17 19 19 19 19 18
10 8 7 8 7 4 4 5 5 7 7 4 3 2 4 4 3 1 1 2 1 3 5 2 3 6 4 3 3 2 4 4 2 0 1 1 3 3 2 1 1 5 6 3 2 2 1 1 1 2 7 11 6 4 5 5 4 4 3 3 2 1 3 4 4 5 5 6 7 9 10 11 7 3 1 0 3 8 11 12 14 17 20 19 19 20 19 18
9 9 10 13 11 7 6 4 2 3 4 4 3 2 2 3 3 1 1 2 1 2 5 3 4 6 2 1 2 3 3 3 2 3 1 2 2 1 2 1 1 5 6 3 2 2 1 1 1 1 4 7 1 2 6 4 1 3 3 1 2 4 4 4 4 3 5 7 7 8 10 9 4 3 3 4 8 11 11 13 17 18 18 19 20 21 21 18
14 15 16 15 8 4 4 3 2 3 4 5 3 1 2 3 3 1 1 2 2 2 3 3 6 6 2 1 3 4 3 3 4 5 3 1 2 1 1 1 2 4 4 2 1 2 1 2 2 1 3 4 2 4 10 6 2 2 3 2 3 4 4 3 3 3 5 6 7 8 8 6 3 4 3 6 9 12 13 16 19 19 19 21 23 23 22 17
18 16 14 13 6 3 3 3 3 3 2 2 2 2 1 2 2 2 0 1 2 2 2 2 5 5 1 2 3 2 6 7 6 7 5 4 4 3 3 3 1 1 2 1 1 1 1 2 3 2 2 4 5 9 12 7 2 1 2 2 2 2 4 5 5 5 6 5 5 6 7 6 5 3 4 5 8 11 15 18 20 22 23 24 24 24 22 17
Wind_Direction
81 74 63 55 44 42 44 42 41 31 20 10 0 352 345 338 331 322 316 310 307 313 321 327 333 338 343 340 338 340 337 13 55 34 247 258 286 303 308 312 314 314 307 294 294 291 288 268 253 238 235 238 233 239 235 216 215 212 232 238 249 258 251 269 285 354 19 54 92 119 28 358 108 118 129 150 135 121 115 97 94 94 95 115 128 143 149 151
83 75 65 54 43 42 43 44 38 30 25 18 14 7 360 354 343 326 305 295 295 302 314 322 331 338 344 346 342 338 341 73 100 243 246 282 306 303 302 310 312 314 310 285 255 277 275 265 255 232 229 240 231 219 216 206 204 211 224 237 242 251 268 301 19 35 31 16 0 69 58 8 68 114 127 163 154 132 120 117 114 101 99 117 134 141 145 151
82 73 60 45 39 37 35 32 23 22 19 14 14 10 9 3 357 353 334 312 303 306 315 321 331 336 343 350 344 338 351 139 186 229 254 294 304 305 304 307 309 313 307 286 263 245 250 259 260 244 236 245 235 204 196 200 197 210 216 248 244 247 296 349 43 49 46 23 346 24 67 19 40 95 131 233 137 101 59 68 97 105 112 118 126 132 138 143
70 60 46 33 32 25 24 19 15 18 14 12 10 7 6 0 357 356 352 347 334 325 322 320 323 329 338 345 342 344 9 175 215 228 254 288 300 309 307 307 306 305 302 293 277 253 247 251 257 262 250 254 247 223 205 196 188 202 209 233 250 265 304 39 63 56 47 30 354 8 47 23 99 86 40 341 113 83 39 30 43 84 117 122 122 127 130 132
54 44 33 25 23 18 18 13 12 14 10 10 5 3 0 355 353 345 343 340 330 322 312 311 314 317 332 337 334 332 256 213 227 233 258 286 303 311 310 313 301 297 306 293 277 279 286 271 262 258 249 253 255 243 225 212 205 217 231 248 260 269 280 85 91 67 35 29 346 295 356 96 106 66 47 56 72 66 26 31 53 74 108 123 122 123 125 125
42 34 25 22 20 18 18 10 11 6 0 357 351 351 346 344 343 336 335 323 316 314 304 302 300 302 322 328 326 310 255 271 254 258 282 295 306 312 310 315 305 299 297 290 310 306 285 271 255 246 241 241 250 246 242 228 215 227 246 253 258 260 272 73 98 75 24 40 289 271 109 122 108 73 62 69 69 66 53 65 84 83 100 116 119 119 120 120
38 33 28 26 24 20 17 8 4 355 351 350 346 344 337 334 328 323 322 314 306 306 309 305 292 292 308 316 316 291 241 217 300 309 313 310 311 314 316 318 313 307 295 306 323 299 283 273 257 250 249 241 247 249 256 242 205 211 259 264 267 264 278 19 92 298 4 179 189 88 103 103 110 92 72 72 69 72 77 86 95 97 106 112 113 114 113 111
42 40 33 27 23 17 17 12 6 359 357 356 352 348 343 337 327 313 306 304 298 302 313 308 291 284 295 308 312 290 245 275 331 327 317 313 314 315 323 321 316 318 320 324 309 298 294 282 266 262 263 256 262 262 275 259 202 218 249 258 262 250 253 228 207 252 185 187 166 137 98 71 93 97 74 72 77 79 88 96 101 104 108 107 106 106 106 105
44 41 32 27 21 16 17 11 7 4 2 3 358 352 347 342 332 314 301 296 296 300 300 299 284 277 295 312 312 294 320 347 336 332 318 314 313 312 318 319 319 323 328 319 303 298 293 291 293 298 305 295 286 287 292 241 231 260 257 258 259 258 255 183 181 196 177 181 157 171 120 100 105 98 70 72 88 92 97 96 99 102 101 100 100 100 102 102
46 39 32 29 25 19 15 9 7 6 4 4 359 352 346 343 338 323 311 302 298 302 296 293 284 293 305 315 310 300 338 338 346 341 324 315 310 309 312 310 311 311 312 303 300 297 282 295 312 317 317 310 306 295 261 234 289 319 301 290 284 285 269 182 205 197 177 180 170 184 119 116 115 89 71 87 98 102 101 95 97 99 96 97 99 99 99 99
47 43 41 38 30 21 13 12 12 8 5 2 359 355 354 351 346 334 326 318 308 308 300 289 299 310 302 299 313 310 327 342 355 349 339 330 321 319 319 313 309 304 297 281 293 296 273 280 296 305 305 301 317 301 246 242 285 298 308 309 280 269 256 208 218 188 169 171 181 183 105 105 75 65 95 105 107 107 101 96 97 95 94 95 96 97 96 97
44 40 39 34 26 19 14 17 15 12 9 4 360 359 358 356 354 344 339 339 327 320 310 304 314 312 271 58 6 4 340 339 345 350 354 346 333 332 328 318 313 307 299 277 255 272 269 277 279 284 295 303 320 307 276 312 292 287 289 296 273 263 248 216 205 179 173 157 165 162 109 89 57 81 112 113 112 107 100 96 95 92 92 94 94 94 92 94
34 28 26 21 17 13 9 14 14 14 12 7 2 360 355 355 359 354 352 360 348 331 322 334 332 31 85 65 43 4 344 337 338 349 355 346 337 333 328 321 313 305 302 287 269 268 269 283 271 271 292 297 305 294 305 309 282 279 264 249 266 280 256 203 176 159 160 139 155 161 132 91 74 101 116 120 119 106 99 96 94 93 91 93 93 92 91 93
18 18 15 8 10 6 360 2 6 7 6 4 1 359 354 354 359 354 348 353 345 328 351 23 51 99 78 61 17 354 348 348 346 348 348 346 344 337 332 324 316 309 307 294 281 279 267 276 274 268 278 269 277 295 303 283 234 257 264 242 231 260 280 130 133 151 158 140 165 171 127 117 99 110 118 124 121 107 102 99 98 97 94 95 95 94 92 91
5 5 4 2 3 360 354 353 356 358 359 358 356 358 357 353 354 351 348 345 342 6 62 33 57 113 93 69 6 352 353 355 347 346 350 352 353 346 326 304 304 305 312 306 288 287 273 267 265 264 268 252 266 285 290 255 220 209 241 266 231 213 198 101 121 159 155 147 184 181 89 115 103 110 127 123 116 107 104 103 102 102 100 99 97 96 95 92
356 351 352 354 354 352 350 348 349 352 353 353 353 356 355 349 352 359 2 357 17 80 52 22 19 70 90 28 8 357 352 348 340 354 1 353 349 342 325 313 314 310 314 318 303 289 279 263 256 259 264 260 247 235 263 273 243 197 197 260 267 231 184 142 62 38 103 127 189 202 87 112 104 111 127 120 113 108 106 107 107 106 105 104 101 100 98 96
350 344 340 342 346 345 342 342 341 344 347 348 352 357 354 349 354 8 11 17 86 83 48 42 72 99 68 23 6 347 343 339 340 7 6 348 341 337 336 341 325 303 302 313 319 285 252 246 246 257 246 233 247 241 268 300 293 295 209 279 290 306 330 190 60 25 113 102 174 152 89 99 103 107 116 116 115 110 110 111 110 109 107 106 105 103 100 98
345 341 337 334 337 337 336 337 336 341 343 344 354 359 354 346 358 26 27 44 97 72 43 47 65 129 59 22 359 338 341 351 1 10 1 345 342 345 346 336 305 291 277 273 275 231 223 226 222 263 267 223 269 297 284 325 331 330 336 312 309 329 321 306 71 81 86 40 107 110 100 106 109 105 107 111 113 110 110 112 111 111 109 108 106 105 103 101
343 340 338 332 331 332 334 335 336 343 343 347 359 358 351 342 357 45 42 57 68 52 39 32 33 58 355 360 353 344 354 22 21 5 353 347 349 350 344 328 325 294 272 257 226 206 201 245 246 297 344 359 4 5 340 335 336 320 316 308 299 298 298 336 83 9 336 78 87 98 107 117 113 107 103 105 110 111 113 115 114 114 111 110 109 107 107 104
343 341 340 334 332 332 333 336 339 343 345 352 360 359 358 344 314 64 45 57 65 70 87 40 37 37 2 350 353 354 8 22 28 359 350 354 352 346 346 318 277 252 276 306 273 78 46 308 348 22 358 352 354 354 343 333 330 317 306 300 293 280 287 69 94 324 335 65 86 98 107 109 107 106 104 108 114 115 119 120 117 117 116 114 114 113 112 110
344 343 340 338 336 334 334 336 338 343 348 352 358 8 14 353 316 118 54 60 64 70 76 49 45 29 358 353 0 5 10 6 16 353 352 1 357 345 356 329 267 221 338 311 266 89 49 348 23 15 343 337 333 337 347 335 321 310 299 286 287 281 302 64 87 257 345 73 110 111 106 100 103 95 92 103 110 114 119 121 119 118 118 119 120 120 119 117
344 341 338 337 335 333 333 333 337 343 348 350 7 36 44 26 46 127 101 84 65 64 65 52 49 22 357 357 4 9 16 10 358 350 358 10 17 5 359 354 328 331 14 352 310 290 66 67 23 348 333 327 314 313 330 318 298 284 281 265 273 313 50 72 64 152 119 92 135 124 106 102 106 92 84 88 91 100 110 119 123 124 126 127 128 127 127 125
338 336 333 333 332 332 333 334 339 344 347 356 23 37 42 42 53 143 142 120 79 66 57 52 47 21 10 3 2 13 36 22 355 347 2 13 17 13 360 1 341 319 11 26 351 325 12 61 6 331 315 322 319 325 344 325 296 260 263 265 265 23 43 189 39 187 205 178 135 121 106 107 112 99 86 84 93 103 109 118 125 128 132 132 133 133 133 132
338 337 334 332 334 336 336 339 346 350 353 1 20 23 31 29 33 161 162 131 97 79 47 46 41 16 11 3 3 17 43 25 5 353 5 12 8 10 6 357 339 343 27 6 329 334 63 37 347 313 282 308 312 340 21 358 320 315 25 343 340 10 347 256 303 280 229 219 135 121 110 140 143 128 105 99 109 113 115 121 122 125 130 131 134 136 135 137
345 343 338 336 339 342 341 344 352 353 353 357 6 7 17 11 19 164 173 166 99 54 6 23 29 7 4 5 3 1 47 25 10 1 8 13 10 11 355 342 345 11 13 345 327 126 75 37 343 319 303 324 314 17 36 9 324 341 34 11 348 337 321 294 307 311 272 252 181 157 159 191 151 136 129 139 134 127 128 126 121 124 132 136 137 138 138 139
347 345 342 341 343 347 350 346 346 347 346 351 354 354 360 352 311 164 173 201 104 2 342 0 10 358 360 9 0 344 185 26 7 9 9 11 13 10 350 352 6 27 2 341 359 88 357 2 345 332 308 305 312 80 42 19 336 312 268 323 327 312 300 282 287 280 249 270 202 184 205 193 155 136 139 157 149 142 146 136 134 139 143 144 141 141 143 142
346 347 347 347 347 354 5 351 340 344 345 343 342 343 349 343 172 164 181 175 93 345 344 354 356 358 359 6 5 2 186 342 352 19 10 7 11 4 358 11 346 25 33 337 3 30 332 359 4 351 321 301 13 45 28 33 337 278 227 269 289 280 273 266 266 248 249 292 230 196 212 190 161 138 139 153 145 150 162 147 149 156 154 152 149 149 150 149
349 351 350 352 355 359 1 352 344 348 347 338 334 342 343 335 154 157 196 160 25 340 346 356 350 3 2 10 26 43 66 343 346 11 7 10 12 357 323 35 351 315 3 351 357 15 350 16 10 348 344 6 9 332 357 47 276 275 274 282 281 271 272 271 267 258 260 283 263 206 201 195 108 127 142 160 159 165 170 158 158 164 162 157 154 154 153 152
352 354 353 357 359 356 352 350 350 349 346 338 336 342 349 98 139 153 303 198 357 346 355 1 349 355 358 13 41 32 25 18 1 348 4 20 18 6 270 17 351 303 315 322 352 21 52 54 35 352 358 9 326 307 330 117 232 302 322 296 275 255 255 254 247 257 260 257 258 202 189 181 95 138 165 181 188 177 162 157 159 163 163 157 155 156 154 153
353 355 356 357 356 353 352 355 355 348 344 339 335 339 26 118 139 200 12 285 344 354 341 1 356 340 351 7 37 14 9 27 1 350 11 32 26 23 12 338 347 324 250 346 28 63 80 65 59 56 19 313 289 287 275 225 253 318 319 292 275 251 221 218 227 235 265 252 217 124 155 117 109 121 93 145 220 108 136 146 153 158 161 159 159 159 159 159
356 357 357 356 356 357 358 360 354 343 344 336 326 346 80 141 33 77 47 341 338 357 343 0 356 341 357 12 13 359 352 360 0 2 14 25 29 27 27 1 350 352 121 12 26 139 128 71 71 80 25 311 290 288 261 217 257 324 297 288 298 281 176 215 226 195 231 250 200 72 24 13 120 103 58 66 21 15 95 144 150 157 163 162 162 164 165 167
358 359 358 356 356 359 358 354 348 341 341 335 330 25 105 171 34 40 349 318 294 1 358 324 340 339 345 340 336 349 337 336 358 6 7 26 50 36 39 34 352 357 13 345 332 309 87 118 89 126 34 345 325 325 337 216 271 308 294 321 330 322 339 298 246 214 237 193 158 95 15 26 82 76 61 65 35 7 23 141 154 159 163 162 164 168 170 172
359 1 0 356 355 356 354 351 350 344 340 342 355 119 11 41 50 39 329 348 326 332 322 264 307 314 303 316 348 345 300 239 350 346 316 59 88 66 59 47 10 9 346 319 326 337 352 89 24 79 359 348 353 356 353 320 320 324 327 342 333 330 337 304 297 306 306 75 136 125 34 63 120 77 44 62 52 27 39 99 143 154 158 160 166 167 170 178
2 6 3 360 358 354 352 353 348 340 344 354 340 119 49 63 68 112 349 9 11 325 325 298 303 298 286 12 27 359 357 209 355 356 342 29 73 50 52 42 20 16 322 309 356 344 322 334 347 348 322 338 4 45 323 285 297 299 298 313 330 8 4 293 317 325 310 318 311 88 48 31 144 111 70 87 81 62 65 88 118 135 146 155 161 164 172 188
10 11 7 6 5 0 359 1 353 350 3 7 23 56 57 73 60 26 11 342 347 333 327 326 309 299 38 93 136 53 46 344 1 23 16 29 50 27 31 28 18 21 348 335 13 331 329 317 278 326 334 347 16 32 296 307 300 280 304 340 339 342 293 273 293 294 282 299 306 112 69 25 71 105 112 114 106 96 95 102 112 123 138 150 162 174 186 196
21 21 17 12 10 10 14 18 18 26 31 31 62 61 55 71 15 14 12 329 334 325 313 315 325 346 10 21 47 29 51 205 327 356 78 66 49 46 53 17 12 28 30 355 311 320 347 300 251 218 358 37 56 337 329 348 327 306 352 7 286 257 197 271 292 296 290 281 296 97 97 83 112 116 135 140 124 116 121 128 132 139 151 165 179 186 193 201
34 28 21 18 21 23 36 50 51 58 65 69 76 67 53 60 17 358 5 342 316 298 310 328 35 8 346 343 1 357 351 312 329 337 70 102 30 21 23 31 33 28 29 3 302 46 34 293 288 296 275 153 127 59 330 315 306 357 358 322 303 289 111 77 291 310 323 302 305 61 103 169 204 158 169 175 155 146 154 153 153 158 170 186 192 189 198 217
51 37 25 23 29 31 42 60 56 65 73 74 81 79 47 27 31 18 3 344 299 268 329 2 39 13 348 340 339 344 348 354 340 343 22 59 356 10 3 32 33 9 358 2 304 355 9 300 292 313 336 141 138 52 352 304 306 76 295 307 335 34 27 348 316 315 319 303 304 327 34 73 41 122 164 180 167 165 172 163 162 175 187 200 200 189 203 234
61 47 28 22 36 42 47 75 79 78 76 70 84 86 60 63 56 28 360 342 298 288 350 21 13 27 17 341 324 339 2 357 331 332 16 16 356 28 27 359 346 343 344 351 306 316 329 297 281 316 327 128 139 35 29 352 332 7 344 356 41 153 306 323 292 250 283 288 308 327 343 38 22 38 113 115 112 148 168 174 185 194 196 198 194 191 222 258
65 63 29 22 47 60 70 84 78 71 67 59 71 68 47 93 78 25 16 16 351 341 19 11 339 355 359 332 326 354 358 335 322 333 23 21 8 49 40 16 330 325 330 330 310 324 324 287 293 317 321 339 100 19 38 51 2 359 18 17 15 340 322 314 276 176 286 294 305 325 315 164 110 9 82 100 78 93 137 165 178 180 182 187 199 224 260 281
49 55 15 21 45 67 77 76 60 50 60 65 68 66 44 84 85 30 25 30 41 19 16 8 340 346 343 336 341 358 341 310 320 358 43 37 32 48 26 8 339 323 328 331 345 1 356 313 297 307 316 339 82 7 30 90 49 2 25 35 20 6 359 332 313 51 21 315 279 297 290 215 139 27 75 109 110 90 84 99 133 151 170 203 225 248 280 294
51 40 6 32 63 75 79 72 37 27 67 67 59 66 70 78 66 37 20 21 34 345 318 300 348 349 6 358 337 340 347 322 337 9 42 56 45 28 3 357 343 321 327 336 3 25 19 298 279 288 312 42 82 345 6 66 57 46 66 59 37 37 47 329 287 342 355 311 276 225 250 256 235 103 94 108 124 122 118 125 143 172 207 230 252 278 292 295
63 46 19 36 72 72 78 80 37 43 66 93 91 68 61 62 41 57 38 18 5 298 302 354 29 23 47 28 334 336 355 355 8 27 40 59 65 37 7 5 355 345 343 337 350 0 354 248 280 294 306 77 87 313 338 40 41 53 87 58 50 87 88 244 258 348 329 289 302 284 256 270 232 166 148 148 143 146 166 179 196 230 250 263 280 291 294 296
72 56 41 38 70 85 77 75 75 81 91 129 106 72 65 65 40 38 53 23 8 331 331 26 63 22 354 313 271 309 336 6 41 60 46 33 73 77 23 31 35 18 13 11 324 341 347 296 324 325 326 357 1 326 332 359 4 343 63 68 70 100 84 275 276 35 253 296 355 305 278 289 196 183 169 164 174 190 195 200 218 245 267 278 290 298 301 301
73 57 49 51 73 89 80 74 107 114 117 114 102 67 77 76 43 42 59 20 15 1 332 334 337 301 301 287 246 256 293 89 55 68 56 22 77 134 37 44 57 29 15 16 300 327 326 276 324 2 359 336 324 307 315 327 330 325 61 91 87 87 70 314 334 85 225 340 359 290 259 320 178 190 197 186 189 206 210 228 247 266 286 295 302 306 306 304
71 57 47 51 65 75 74 78 96 111 126 117 95 29 24 77 71 58 78 21 11 9 313 293 302 264 306 339 310 292 33 136 142 63 45 10 357 148 73 59 50 11 9 21 352 324 275 282 356 35 296 272 283 286 302 323 310 300 321 25 94 108 91 21 317 258 272 323 325 220 321 329 310 279 239 192 192 218 230 265 290 297 300 301 304 305 303 302
74 45 21 46 61 66 65 59 57 69 82 60 87 17 16 75 127 38 65 69 359 4 298 240 5 18 359 352 336 353 358 352 105 72 48 337 333 325 129 121 22 341 359 27 11 1 292 298 37 13 284 258 263 276 285 292 288 299 321 335 23 115 107 63 255 277 324 318 277 322 7 330 309 319 318 175 186 234 276 302 300 298 301 304 307 307 304 303
87 89 78 87 74 42 48 45 42 56 60 52 93 46 14 54 69 15 23 306 316 12 350 201 46 30 24 352 318 334 353 349 52 74 51 356 339 316 212 154 178 344 3 40 30 50 309 283 185 281 294 288 276 268 270 270 284 312 320 317 330 130 154 202 249 278 308 262 265 318 336 308 298 316 1 107 124 286 294 295 291 299 310 313 312 307 304 304
105 108 78 80 93 83 84 78 60 68 62 53 84 46 17 43 47 46 353 307 217 43 13 6 14 10 19 350 328 359 12 357 357 19 75 19 330 315 356 145 228 358 13 34 23 50 150 278 227 203 288 300 293 249 256 263 276 307 315 309 316 227 215 239 249 274 284 264 274 300 300 292 297 319 78 88 293 286 285 287 296 309 315 313 309 304 302 302
113 116 104 98 95 81 74 59 33 85 55 28 60 28 351 41 41 24 11 4 32 27 14 12 345 341 331 311 355 60 44 2 313 292 336 19 340 352 50 54 329 348 358 34 12 344 61 8 293 227 293 304 301 225 276 284 308 322 318 185 240 276 279 261 242 265 280 270 276 286 288 291 272 194 218 274 284 284 285 292 304 312 314 311 307 304 301 299
113 118 116 109 89 38 45 30 357 84 50 16 37 16 345 44 35 340 26 50 67 42 16 347 329 324 243 167 60 73 28 339 291 294 320 325 304 326 11 1 3 331 331 26 13 319 359 315 290 358 321 301 334 328 308 313 57 357 302 246 253 275 290 286 263 257 263 269 281 284 284 285 235 198 254 286 289 295 300 307 312 313 311 309 305 302 300 294
115 116 112 106 96 11 6 5 10 65 75 6 28 29 7 42 12 329 5 118 111 69 22 333 324 320 253 109 71 11 320 306 279 280 280 255 260 270 282 304 318 271 300 358 262 221 75 305 300 8 325 287 324 327 310 306 351 316 267 259 297 302 311 308 284 263 263 271 284 279 274 283 290 296 302 294 298 309 311 312 314 312 306 301 297 297 295 286